[ hide orbit diagram ]
For accurate long-term ephemerides, please instead use our Horizons system.This orbit viewer was implemented using two-body methods, and hence should not be used for determining accurate long-term trajectories (over several years or decades) or planetary encounter circumstances.
Orbital Elements at Epoch 2459000.5 (2020-May-31.0) TDB
Reference: JPL 33 (heliocentric ecliptic J2000)
Element | Value | Uncertainty (1-sigma) | Units |
e | .07731796541295939 | 3.9323e-08 | |
a | 3.214292399222694 | 1.5792e-08 | au |
q | 2.965769850672456 | 1.2478e-07 | au |
i | 14.20151676597684 | 4.1643e-06 | deg |
node | 43.83362690559759 | 1.7163e-05 | deg |
peri | 121.2671550496439 | 3.1219e-05 | deg |
M | 124.3860642914414 | 2.6658e-05 | deg |
tp | 2458273.229914000463 (2018-Jun-03.72991400) | 0.00015549 | TDB |
period | 2104.875915571904 5.76 | 1.5512e-05 4.247e-08 | d yr |
n | .1710314595443439 | 1.2605e-09 | deg/d |
Q | 3.462814947772933 | 1.7013e-08 | au |
|
| | Orbit Determination Parameters
Additional Information
|
[ show covariance matrix ]
Physical Parameter Table
Parameter |
Symbol |
Value |
Units |
Sigma |
Reference |
Notes |
absolute magnitude |
H |
10.2 |
|
n/a |
MPO452169 |
|
diameter |
diameter |
83.103 |
km |
0.741 |
urn:nasa:pds:neowise_diameters_albedos::2.0[mainbelt] (http://adsabs.harvard.edu/abs/2012ApJ...759L...8M) |
|
rotation period |
rot_per |
16.852 |
h |
n/a |
LCDB (Rev. 2020-October); Warner et al., 2009 |
Published Reference List: [Alkema, M.S. (2013) Minor Planet Bull. 40, 215-216.] [Marciniak, A.; Pilcher, F.; Oszkiewicz, D.; Santana-Ros, T.; et al. (2015) Planet. Space Sci. 118, 256-266.] [Waszczak, A.; Chang, C.-K.; Ofeck, E.O.; Laher, F.; et al. (2015) Astron. J. 150, A75.] |
geometric albedo |
albedo |
0.023 |
|
0.004 |
urn:nasa:pds:neowise_diameters_albedos::2.0[mainbelt] (http://adsabs.harvard.edu/abs/2012ApJ...759L...8M) |
|
|
806 Gyldenia (A915 HE) Discovered 1915-Apr-18 by Wolf, M. at Heidelberg |
Reference: DISCOVERY.DB | Last Updated: 2003-08-29 |
|
[ show close-approach data ]
|